sat.trackr.live / text

‹ back to catalog

STARLINK-5966

NORAD 56919 · 2023-083AV

PAYLOAD ACTIVE UNKNOWN

§ Identity

Operator
Country
US
Launch date
2023-06-12
Launch site
AFETR
Launch vehicle
Mass (kg)
RCS (m²)

Purposes: comms

External: N2YO · Heavens-Above · Gunter

§ Orbital elements

Epoch: 2026-05-24T22:33:38.026944Z

Period
94.27 min
Inclination
43.0027°
Eccentricity
0.0001555
Mean motion
15.27581462 rev/d
Perigee alt
482.0 km
Apogee alt
484.1 km
Semi-major
6,861.2 km
B*
8.1360e-6
RAAN
359.7149°
Arg perigee
265.4605°
Mean anomaly
94.6069°
Rev number
16,346

§ Raw data

STARLINK-59661 56919U 23083AV  26144.94002346 -.00000038  00000+0  81360-5 0  99952 56919  43.0027 359.7149 0001555 265.4605  94.6069 15.27581462163465

JSON: /api/v1/satellites/56919 · /tle

For live sub-satellite position, see the globe view (requires WebGL).

§ Visibility from observer

Set your observer location to see the next 7 days of passes ≥ 10°. The values pass through the URL so the page stays shareable.

No JS? Fill the form by hand. The geolocation button needs JavaScript.